Regional Weather Roundup
Issued by NWS Northern Indiana

Home | Current Version | Previous Version | Graphics & Text | Print | Product List | Glossary On
Versions: 1 2 3 4 5 6 7 8 9 10 11 12 13 14 15 16 17 18 19 20 21 22 23 24 25 26 27 28 29 30 31 32 33 34 35 36 37 38 39 40 41 42 43 44 45 46 47 48 49 50
000
ASUS43 KIWX 032300
RWRIWX

KIWX WEATHER ROUNDUP
NATIONAL WEATHER SERVICE NORTHERN INDIANA
700 PM EDT THU SEP 03 2015

NOTE: "FAIR" INDICATES FEW OR NO CLOUDS BELOW 12,000 FEET WITH NO
SIGNIFICANT WEATHER AND/OR OBSTRUCTIONS TO VISIBILITY.

* THESE STATIONS ARE NOT UNDER NWS QUALITY CONTROL. THEY ALSO MAY NOT
  REPORT WEATHER SUCH AS PRECIPITATION OR FOG.

INZ001>027-040000-
NORTHERN INDIANA

CITY           SKY/WX    TMP DP  RH WIND       PRES   REMARKS
GARY*          PTSUNNY   90  63  40 W14       29.89S
SOUTH BEND     SUNNY     86  69  56 W9        29.90S
ELKHART*       SUNNY     86  68  54 W8        29.90S
GOSHEN         SUNNY     86  69  56 W9        29.90S
ANGOLA*        SUNNY     88  70  55 W7        29.91S
FORT WAYNE     MOSUNNY   86  66  51 W12       29.92R
PERU/GRISSOM   SUNNY     88  68  51 W8        29.91S

$$
INZ028>050-040000-
CENTRAL INDIANA

CITY           SKY/WX    TMP DP  RH WIND       PRES   REMARKS
LAFAYETTE      SUNNY     88  65  46 W10       29.90F
KOKOMO*        SUNNY     88  66  48 W9        29.92S
MUNCIE*        SUNNY     84  67  56 W7        29.94R
INDIANAPOLIS   MOSUNNY   87  65  47 SW13      29.93F

$$
MIZ043>046-050>051-056>058-064>065-071>073-077>080-040000-
SOUTHWEST LOWER MICHIGAN

CITY           SKY/WX    TMP DP  RH WIND       PRES   REMARKS
BATTLE CREEK   PTSUNNY   86  69  56 W9        29.90R
BENTON HARBOR  PTSUNNY   80  69  69 NW7       29.88S
COLDWATER*     MOSUNNY   87  66  50 W7        29.90R
HILLSDALE*     PTSUNNY   85  66  53 W7        29.92S
HOLLAND        MOSUNNY   76  67  73 NW9       29.91S
GRAND RAPIDS   CLOUDY    80  71  74 W9        29.90R
KALAMAZOO      MOSUNNY   86  69  56 NW9       29.90R
STURGIS*       MOSUNNY   84  68  58 W8        29.89S
THREE RIVERS*  FAIR      86  70  59 W7        29.89S

$$
OHZ001>008-015>018-024>025-040000-
NORTHWEST OHIO

CITY           SKY/WX    TMP DP  RH WIND       PRES   REMARKS
DEFIANCE       SUNNY     89  66  46 W8        29.90S
FINDLAY        MOSUNNY   86  69  56 SW5       29.91S
TOLEDO EXPRESS PTSUNNY   85  67  54 SW6       29.90R
TOLEDO METCALF PTSUNNY   87  66  49 SW7       29.91R
LIMA           MOSUNNY   85  68  56 W8        29.93S

$$
AND FOR LAKE MICHIGAN COASTAL AND OPEN LAKE BUOY OBSERVATIONS

STATION/POSITION TEMP    WIND        PRES    VSBY  WAVE
                 AIR SEA DIR/SP/G                  HT/PER
                 (F)     (DEG/KT/KT) (MB)    (MI)  (FT/S)
CALUMET HARBOR    90     240/  5/ 12   N/A
MICHIGAN CITY     82     220/  7/  7   N/A
BURNS HARBOR      83     250/  8/ 12 1012.2S
SAINT JOSEPH      83     180/  7/ 10 1013.2R
SOUTH LAKE BUOY   71 71   10/ 12/ 14 1012.1R
4 MI NW BRIDGMAN  78 74  250/  4/  6   N/A           1
MICHIGAN CITY     80 76  260/  4/  6   N/A           0

$$
&&



USA.gov is the U.S. government's official web portal to all federal, state and local government web resources and services.